Regional Weather Roundup
Issued by NWS

Home | Current Version | Previous Version | Graphics & Text | Print | Product List | Glossary Off
Versions: 1 2 3 4 5 6 7 8 9 10 11 12 13 14 15 16 17 18 19 20 21 22 23 24 25 26 27 28 29 30 31 32 33 34 35 36 37 38 39 40 41 42 43 44 45 46 47 48 49 50

000
ASUS43 KMKX 240917
RWRWI

WISCONSIN REGIONAL WEATHER ROUNDUP
NATIONAL WEATHER SERVICE MILWAUKEE/SULLIVAN WI
400 AM CDT SUN MAY 24 2015

NOTE: "FAIR" INDICATES FEW OR NO CLOUDS BELOW 12,000 FEET WITH NO
SIGNIFICANT WEATHER AND/OR OBSTRUCTIONS TO VISIBILITY.

WIZ001-002-006>008-014>016-023>028-241000-
NORTHWEST WISCONSIN

CITY           SKY/WX    TMP DP  RH WIND       PRES   REMARKS
SUPERIOR ARPT  PTCLDY    47  43  87 CALM      30.16R
ASHLAND        CLOUDY    49  46  90 CALM      30.15S
HAYWARD        CLOUDY    53  48  83 NE3       30.17R
SIREN          CLOUDY    55  51  85 CALM      30.15R
CUMBERLAND     CLOUDY    57  45  62 E5        30.15R
RICE LAKE      CLOUDY    56  52  84 CALM      30.16S
CHETEK         CLOUDY    55  52  89 CALM      30.15S
LADYSMITH      CLOUDY    58  48  67 E7        30.17S
EAU CLAIRE     NOT AVBL
MENOMONIE      CLOUDY    60  47  63 CALM      30.14R
NEW RICHMOND   CLOUDY    59  47  66 E3        30.13F
OSCEOLA        CLOUDY    56  55  97 CALM      30.15S
$$

WIZ003>005-009-010-017-018-241000-
NORTH CENTRAL WISCONSIN

CITY           SKY/WX    TMP DP  RH WIND       PRES   REMARKS
MANITOWISH WTR CLOUDY    53  50  89 CALM      30.18S
ARBOR VITAE    CLOUDY    57  50  77 CALM      30.18S
WOODRUFF       CLOUDY    57  50  77 CALM      30.18S
RHINELANDER    CLOUDY    57  50  77 CALM      30.19S
EAGLE RIVER    CLOUDY    55  44  67 CALM      30.17F
LAND O LAKES   CLOUDY    52  45  77 CALM      30.19S
PHILLIPS       CLOUDY    55  48  79 CALM      30.16F
TOMAHAWK       CLOUDY    52  48  87 CALM      30.18S
MEDFORD        CLOUDY    53  48  84 CALM      30.17S
MERRILL        CLOUDY    53  51  92 CALM      30.18F
$$

WIZ029-030-035-036-043>047-241000-
CENTRAL WISCONSIN

CITY           SKY/WX    TMP DP  RH WIND       PRES   REMARKS
WAUSAU         CLOUDY    56  49  77 CALM      30.16S
MOSINEE        MOCLDY    59  43  55 CALM      30.18S
MARSHFIELD     MOCLDY    57  46  66 E3        30.17R
STEVENS POINT  MOCLDY    52  48  88 CALM      30.18R
WAUPACA        PTCLDY    55  48  80 CALM      30.18S
WAUTOMA        NOT AVBL
WISC RAPIDS    PTCLDY    53  45  74 CALM      30.18S
CAMP DOUGLAS   NOT AVBL
$$

WIZ011>013-019>022-031-037>040-048>050-241000-
NORTHEAST WISCONSIN

CITY           SKY/WX    TMP DP  RH WIND       PRES   REMARKS
ANTIGO         CLOUDY    56  49  77 CALM      30.18F
SHAWANO        CLOUDY    57  48  73 W7        30.18R
OCONTO         MOCLDY    51  48  90 CALM      30.17S
STURGEON BAY   CLOUDY    61  39  44 S7        30.20S
GREEN BAY      MOCLDY    59  43  55 CALM      30.18R
MANITOWOC      NOT AVBL
APPLETON       PTCLDY    57  43  58 CALM      30.19R
CLINTONVILLE   MOCLDY    55  48  76 CALM      30.18R
OSHKOSH        PTCLDY    51  43  74 SE3       30.18R
$$

WIZ032>034-041-042-053>061-241000-
SOUTHWEST WISCONSIN

CITY           SKY/WX    TMP DP  RH WIND       PRES   REMARKS
LA CROSSE      CLOUDY    60  50  69 SE6       30.13F
SPARTA         MOCLDY    50  48  93 CALM      30.16S
VIROQUA        CLOUDY    61  45  56 SE7       30.17R
BOSCOBEL       MOCLDY    56  51  84 CALM      30.15F
PRAIRIE DU CHI CLOUDY    56  50  79 CALM      30.14S
PLATTEVILLE    CLOUDY    62  50  64 SE6       30.16S
$$

WIZ056-057-062-063-064-067-068-241000-
SOUTH CENTRAL WISCONSIN

CITY           SKY/WX    TMP DP  RH WIND       PRES   REMARKS
REEDSBURG      CLOUDY    53  49  89 CALM      30.17R
BARABOO/DELLS  MOCLDY    55  46  71 CALM      30.17S
LONE ROCK      NOT AVBL
MINERAL POINT  MOCLDY    61  45  55 SE5       30.17S
MADISON        MOCLDY    55  47  74 CALM      30.18R
MIDDLETON      MOCLDY    54  46  75 CALM      30.19R
WATERTOWN      MOCLDY    54  47  77 CALM      30.19R
MONROE         CLOUDY    61  48  63 S6        30.18R
JANESVILLE     MOCLDY    54  46  76 CALM      30.18S
$$

WIZ051-052-058>065-066-070>072-241000-
SOUTHEAST WISCONSIN

CITY           SKY/WX    TMP DP  RH WIND       PRES   REMARKS
MILWAUKEE      PTCLDY    60  43  53 SW8       30.20R
WAUKESHA       MOCLDY    57  41  54 S6        30.21R
MILWAUKEE/TIMM PTCLDY    52  41  66 CALM      30.21R
RACINE         PTCLDY    61  45  55 SW8       30.22R
BURLINGTON     PTCLDY    49  46  88 CALM      30.20R
KENOSHA        PTCLDY    54  45  71 SW3       30.20R
FOND DU LAC    PTCLDY    58  41  53 S5        30.19R
SHEBOYGAN      CLEAR     44  40  85 CALM      30.20R
WEST BEND      PTCLDY    48  43  81 CALM      30.20R
JUNEAU         MOCLDY    57  44  62 SE5       30.20R
$$

LSZ147-162-241000-
LAKE SUPERIOR

STATION/POSITION TIME  TEMP    WIND        PRES    WAVE
                       AIR SEA DIR/SP/G            HT/PER
                 (UTC) (F)     (DEG/KT/KT) (MB)    (FT/S)
W MID LAKE BUOY  0750   45 36  240/ 10/ 12   N/A     1/ 3
DEVILS ISLAND    0800   60     240/ 12/ 12   N/A
SAXON HARBOR     0700   51     200/  5/  6   N/A
$$

LMZ867-665-643>646-241000-
LAKE MICHIGAN

STATION/POSITION TIME  TEMP    WIND        PRES    WAVE
                       AIR SEA DIR/SP/G            HT/PER
                 (UTC) (F)     (DEG/KT/KT) (MB)    (FT/S)
CHAMBERS ISLAND  0700   62     210/  4/  7   N/A
N MID LAKE BUOY  0750   42 36  210/  6/  8   N/A     1/ 4
NORTHPORT PIER   0800   64     230/  5/  9   N/A
SISTER BAY       0818   63        CALM       N/A
KEWAUNEE LAKESHO 0800   50     180/  8/  9   N/A
SHEBOYGAN LAKESH 0800   54     220/  3/  3   N/A
PORT WASHINGTON  0800   49     250/  1/  1   N/A
ATWATER BUOY     0800   48 45  260/  2/  2   N/A
MILWAUKEE LAKESH 0800   51      70/  1/  1   N/A
S MID LAKE BUOY  0750   47 38  170/ 10/ 10   N/A     0
KENOSHA   LAKESH 0800   53     180/  8/  9   N/A
$$

TC  - TEMPERATURE IN CELSIUS
VSB - VISIBILITY IN STATUTE MILES
WCI - WIND CHILL INDEX
HX  - HEAT INDEX



USA.gov is the U.S. government's official web portal to all federal, state and local government web resources and services.